[[{"header":{"parameterUnit":"m.s-1","parameterCategory":1,"la1":30.2991,"la2":30.254,"lo1":-89.0895,"lo2":-89.0444,"dy":0.0017,"dx":0.0017,"nx":28,"ny":28,"refTime":"2025-12-22T03:00:00:Z","depth":0,"parameterNumber":2,"parameterNumberName":"U-component_of_WINDS"},"data":[0,0,0,0,0,0,0,0,0,0,0,0,0,0,0,0,0,0,0,0,0,0,0,0,0,0,0,0,0,0,0,0,0,0,0,0,0,0,0,0,0,0,0,0,0,0,0,0,0,0,0,0,0,0,0,0,0,0,-2.7323,-2.7324,0,-2.7503,-2.7505,-2.7507,-2.7526,-2.7524,-2.7522,-2.752,-2.7712,-2.7718,-2.7725,0,0,0,0,0,0,0,0,0,0,0,0,0,-2.7,-2.7006,-2.7322,-2.7325,-2.7327,-2.7503,-2.7506,-2.7508,-2.7526,-2.7524,-2.7521,-2.7519,-2.7709,-2.7718,-2.7726,0,0,0,0,0,0,0,0,0,0,0,0,0,-2.7157,-2.7008,-2.7322,-2.7357,-2.7362,-2.7503,-2.7506,-2.7509,-2.7526,-2.7524,-2.7521,-2.7518,-2.7707,-2.7717,-2.7727,-2.7847,0,0,-2.7758,-2.7763,0,0,0,0,0,0,0,0,-2.7148,-2.7168,-2.7349,-2.7355,-2.736,-2.7489,-2.7462,-2.7622,-2.7527,-2.7464,-2.752,-2.7517,-2.764,-2.7656,-2.7696,-2.7856,-2.7864,-2.7759,-2.7766,-2.777,-2.7773,0,0,0,0,0,0,0,-2.7137,-2.7161,-2.7394,-2.7352,-2.7359,-2.7366,-2.7385,-2.7493,-2.7566,-2.7469,-2.7471,-2.7492,-2.7643,-2.7686,-2.7701,-2.7867,-2.7759,-2.7768,-2.7775,-2.7779,-2.8137,-2.8141,0,0,0,0,0,0,-2.7118,-2.7152,-2.7388,-2.74,-2.7245,-2.7374,-2.7396,-2.7451,-2.7565,-2.758,-2.7494,-2.7492,-2.767,-2.7689,-2.7708,-2.7857,-2.777,-2.778,-2.7785,-2.8134,-2.8138,-2.8142,0,0,0,0,0,0,-2.7111,-2.7139,-2.7381,-2.7276,-2.7307,-2.7383,-2.7445,-2.7456,-2.7499,-2.7584,-2.7597,-2.7525,-2.7669,-2.7693,-2.7812,-2.7864,-2.7784,-2.7794,-2.813,-2.8135,-2.814,-2.8156,0,0,0,0,0,0,-2.7102,-2.7137,-2.7181,-2.7277,-2.7313,-2.748,-2.7448,-2.7461,-2.7516,-2.7515,-2.7616,-2.763,-2.7668,-2.7797,-2.7823,-2.7877,-2.7802,-2.8126,-2.8132,-2.8138,-2.8151,-2.8161,-2.8169,0,0,0,0,0,-2.7091,-2.7179,-2.7183,-2.7212,-2.737,-2.7483,-2.7504,-2.7545,-2.752,-2.7567,-2.7622,-2.7627,-2.7854,-2.7809,-2.7838,-2.7896,-2.8123,-2.8131,-2.8138,-2.8147,-2.8159,-2.8169,0,0,0,0,0,0,-2.709,-2.7193,-2.7198,-2.732,-2.7393,-2.7486,-2.7546,-2.7556,-2.7639,-2.7634,-2.7683,-2.7706,-2.7824,-2.7872,-2.782,-2.802,-2.7986,-2.8,-2.7983,-2.7995,-2.8004,-2.799,-2.781,0,0,0,0,0,-2.7103,-2.7185,-2.7271,-2.7371,-2.7407,-2.747,-2.7521,-2.7546,-2.7624,-2.7656,-2.7719,-2.7796,-2.7886,-2.7943,-2.803,-2.8158,-2.8182,-2.8213,-2.8222,-2.8229,-2.824,-2.8314,-2.8329,-2.8167,-2.8167,-2.8166,0,0,-2.7133,-2.72,-2.7248,-2.7372,-2.7431,-2.7517,-2.7496,-2.7587,-2.7652,-2.767,-2.7786,-2.7836,-2.7926,-2.805,-2.8108,-2.8094,-2.829,-2.8239,-2.8243,-2.8251,-2.8323,-2.8338,-2.8352,-2.8172,-2.8171,-2.817,0,0,-2.7231,-2.7289,-2.7378,-2.7438,-2.7527,-2.7569,-2.7591,-2.7683,-2.7716,-2.7833,-2.7849,-2.7928,-2.808,-2.8144,-2.8196,-2.832,-2.8329,-2.8348,-2.8395,-2.8466,-2.8478,-2.849,-2.8535,-2.8551,-2.8359,-2.8359,-2.8359,0,-2.7257,-2.7384,-2.7424,-2.7514,-2.757,-2.7589,-2.7682,-2.7738,-2.7852,-2.7891,-2.7873,-2.8065,-2.8127,-2.8268,-2.8298,-2.834,-2.8368,-2.8336,-2.8473,-2.8485,-2.8497,-2.854,-2.8557,-2.836,-2.836,-2.836,-2.836,0,-2.7413,-2.7501,-2.7563,-2.767,-2.7733,-2.7824,-2.788,-2.7939,-2.796,-2.8004,-2.8124,-2.8199,-2.8302,-2.8338,-2.8359,-2.8482,-2.8471,-2.8462,-2.843,-2.8513,-2.8555,-2.8572,-2.8363,-2.8362,-2.8362,-2.8361,0,0,-2.7514,-2.7642,-2.7664,-2.7714,-2.7815,-2.7885,-2.7979,-2.8078,-2.8128,-2.8207,-2.8288,-2.8417,-2.841,-2.8469,-2.8499,-2.8561,-2.8656,-2.8545,-2.8548,-2.8564,-2.8798,-2.8804,-2.8822,-2.8662,-2.8665,-2.8668,-2.8791,0,-2.7623,-2.7787,-2.7826,-2.7968,-2.8051,-2.8072,-2.8154,-2.8226,-2.8271,-2.835,-2.8401,-2.8492,-2.8475,-2.8512,-2.8574,-2.8631,-2.8703,-2.8623,-2.874,-2.8744,-2.8716,-2.8844,-2.885,-2.8962,-2.8807,-2.881,-2.8812,0,-2.7772,-2.7852,-2.8001,-2.8092,-2.8129,-2.8201,-2.8296,-2.8371,-2.8454,-2.8483,-2.855,-2.8573,-2.8674,-2.8637,-2.8778,-2.8722,-2.8773,-2.8808,-2.8814,-2.8826,-2.8783,-2.886,-2.8998,-2.9015,-2.8838,-2.8836,-2.8834,0,-2.7831,-2.7977,-2.8085,-2.8127,-2.8236,-2.8287,-2.8335,-2.8416,-2.8473,-2.8557,-2.8595,-2.869,-2.8743,-2.8817,-2.8866,-2.8834,-2.9004,-2.8971,-2.9032,-2.9031,-2.9067,-2.9064,-2.9215,-2.9099,-2.9099,-2.9099,-2.9098,0,-2.7949,-2.804,-2.8113,-2.818,-2.8283,-2.8329,-2.8431,-2.8481,-2.8552,-2.8631,-2.8656,-2.873,-2.879,-2.8873,-2.8913,-2.9025,-2.9048,-2.9076,-2.9085,-2.9074,-2.907,-2.9108,-2.9101,-2.9103,-2.9102,-2.9101,-2.9101,0,-2.8032,-2.8085,-2.8205,-2.8298,-2.8324,-2.8396,-2.8477,-2.8544,-2.859,-2.869,-2.8716,-2.8789,-2.8888,-2.8945,-2.907,-2.9097,-2.9221,-2.9227,-2.9192,-2.9197,-2.9255,-2.9249,-2.9436,-2.9464,-2.9329,-2.933,-2.9331,0,-2.8104,-2.8174,-2.8275,-2.8328,-2.8376,-2.8462,-2.8521,-2.857,-2.8631,-2.8732,-2.8788,-2.8888,-2.897,-2.9129,-2.9194,-2.9291,-2.93,-2.9359,-2.9314,-2.9301,-2.9301,-2.9297,-2.9305,-2.9366,-2.9367,-2.9368,-2.9369,0,-2.8226,-2.8249,-2.833,-2.8422,-2.8491,-2.8566,-2.8641,-2.8684,-2.8747,-2.8814,-2.8914,-2.8978,-2.9106,-2.9206,-2.9309,-2.9361,-2.9377,-2.9382,-2.9402,-2.9391,-2.9368,-2.9382,-2.9213,-2.9378,-2.9377,-2.9376,-2.9376,-2.9375,-2.8306,-2.837,-2.845,-2.8542,-2.8603,-2.8673,-2.8741,-2.8795,-2.8879,-2.8985,-2.901,-2.9117,-2.9201,-2.934,-2.9395,-2.9481,-2.9471,-2.9499,-2.9506,-2.9513,-2.9515,-2.9354,-2.95,-2.95,-2.95,-2.95,-2.95,0,-2.843,-2.8483,-2.8566,-2.8669,-2.8742,-2.8748,-2.8832,-2.8893,-2.8985,-2.9062,-2.9143,-2.926,-2.9357,-2.9431,-2.9532,-2.9586,-2.9596,-2.9611,-2.9608,-2.962,-2.9518,-2.9491,-2.9602,-2.9602,-2.9602,-2.9602,-2.9602,-2.9602,-2.8502,-2.8611,-2.8643,-2.8784,-2.8837,-2.894,-2.8988,-2.9053,-2.9114,-2.9243,-2.9324,-2.937,-2.9447,-2.9554,-2.9645,-2.9664,-2.97,-2.9715,-2.9735,-2.9638,-2.9627,-2.9617,-2.9592,-2.9722,-2.9722,-2.9831,-2.9832,-2.9832]},{"header":{"parameterUnit":"m.s-1","parameterCategory":1,"la1":30.2991,"la2":30.254,"lo1":-89.0895,"lo2":-89.0444,"dy":0.0017,"dx":0.0017,"nx":28,"ny":28,"refTime":"2025-12-22T03:00:00:Z","depth":0,"parameterNumber":3,"parameterNumberName":"V-component_of_WINDS"},"data":[0,0,0,0,0,0,0,0,0,0,0,0,0,0,0,0,0,0,0,0,0,0,0,0,0,0,0,0,0,0,0,0,0,0,0,0,0,0,0,0,0,0,0,0,0,0,0,0,0,0,0,0,0,0,0,0,0,0,0.4205,0.4206,0,0.4293,0.4294,0.4295,0.433,0.433,0.4329,0.4329,0.443,0.4433,0.4436,0,0,0,0,0,0,0,0,0,0,0,0,0,0.4079,0.4081,0.4205,0.4206,0.4207,0.4293,0.4294,0.4295,0.433,0.433,0.4329,0.4329,0.4429,0.4433,0.4436,0,0,0,0,0,0,0,0,0,0,0,0,0,0.4147,0.4082,0.4205,0.4235,0.4238,0.4293,0.4294,0.4296,0.433,0.433,0.4329,0.4329,0.4428,0.4432,0.4437,0.4472,0,0,0.445,0.4452,0,0,0,0,0,0,0,0,0.4143,0.4152,0.4229,0.4233,0.4237,0.43,0.4287,0.4355,0.433,0.4296,0.4329,0.4329,0.4388,0.4396,0.4413,0.4477,0.4481,0.4451,0.4453,0.4455,0.4456,0,0,0,0,0,0,0,0.4139,0.4149,0.424,0.423,0.4235,0.4248,0.4257,0.43,0.4343,0.4299,0.4301,0.4311,0.439,0.4409,0.4416,0.4482,0.4451,0.4454,0.4457,0.4459,0.4583,0.4583,0,0,0,0,0,0,0.4127,0.4144,0.4238,0.4243,0.4188,0.425,0.426,0.428,0.4343,0.4352,0.4311,0.4312,0.4402,0.4411,0.442,0.4467,0.4455,0.4459,0.4462,0.4582,0.4583,0.4584,0,0,0,0,0,0,0.4125,0.4135,0.4234,0.4194,0.4208,0.4253,0.4275,0.4282,0.4301,0.4352,0.4361,0.4321,0.4402,0.4414,0.4459,0.447,0.4461,0.4465,0.4581,0.4582,0.4583,0.4559,0,0,0,0,0,0,0.4121,0.4134,0.4145,0.4194,0.421,0.4267,0.4275,0.4284,0.4307,0.4309,0.4364,0.4373,0.4402,0.4452,0.4463,0.4476,0.4469,0.458,0.4582,0.4583,0.4559,0.4559,0.4559,0,0,0,0,0,0.4116,0.4136,0.4145,0.4156,0.4223,0.4268,0.4277,0.4307,0.4308,0.4321,0.4354,0.4371,0.4467,0.4456,0.4469,0.4484,0.458,0.4581,0.4583,0.4559,0.4559,0.4559,0,0,0,0,0,0,0.409,0.4143,0.4154,0.4189,0.4223,0.4273,0.4291,0.4306,0.4343,0.4344,0.4384,0.4396,0.4438,0.4466,0.4453,0.4523,0.4525,0.4529,0.4503,0.4503,0.4503,0.4496,0.4472,0,0,0,0,0,0.4088,0.4116,0.4162,0.419,0.4206,0.4245,0.4266,0.4286,0.4325,0.434,0.4377,0.4417,0.4456,0.4481,0.452,0.4564,0.4578,0.4581,0.4581,0.4581,0.4584,0.4612,0.4615,0.4588,0.4588,0.4588,0,0,0.4085,0.4117,0.4133,0.4185,0.4214,0.4246,0.4257,0.429,0.4316,0.4347,0.439,0.4419,0.4467,0.4511,0.4533,0.4536,0.4595,0.4582,0.4582,0.4586,0.4614,0.4616,0.4618,0.4589,0.4589,0.4589,0,0,0.4096,0.4122,0.4148,0.4176,0.4219,0.4245,0.4252,0.43,0.4319,0.4363,0.4388,0.4421,0.4487,0.4521,0.4546,0.4572,0.4591,0.4585,0.4585,0.4612,0.4614,0.4616,0.4628,0.4631,0.4588,0.4588,0.4588,0,0.4087,0.4132,0.4161,0.4192,0.4216,0.4243,0.4272,0.43,0.4354,0.4372,0.4374,0.4459,0.4493,0.4547,0.4553,0.4573,0.4585,0.4578,0.4611,0.4613,0.4616,0.4627,0.4631,0.4587,0.4587,0.4587,0.4587,0,0.4121,0.4153,0.417,0.4218,0.4244,0.4275,0.4312,0.4336,0.4355,0.4382,0.4429,0.4471,0.452,0.4534,0.4554,0.4593,0.4593,0.4602,0.4606,0.4617,0.4628,0.4633,0.4585,0.4586,0.4586,0.4586,0,0,0.4116,0.4181,0.4187,0.421,0.426,0.4287,0.4321,0.4365,0.4386,0.4424,0.4456,0.4513,0.4522,0.4551,0.4576,0.4599,0.462,0.4606,0.4608,0.4609,0.4669,0.4662,0.4666,0.4632,0.4633,0.4634,0.4665,0,0.4135,0.4191,0.4219,0.4266,0.4297,0.4324,0.4355,0.4391,0.4418,0.4453,0.4485,0.4525,0.4533,0.4551,0.4576,0.4612,0.4633,0.461,0.4667,0.4668,0.4654,0.4672,0.4664,0.4691,0.467,0.4671,0.4671,0,0.4162,0.4197,0.4245,0.4293,0.4308,0.4333,0.4378,0.4409,0.4453,0.4472,0.4505,0.4529,0.4571,0.4571,0.4631,0.4615,0.4641,0.4663,0.4665,0.4672,0.467,0.4681,0.47,0.4705,0.4678,0.4678,0.4677,0,0.4155,0.4215,0.4252,0.4271,0.4328,0.4346,0.4371,0.4414,0.444,0.4481,0.4499,0.4545,0.4571,0.4609,0.4647,0.4643,0.4705,0.4707,0.4725,0.4724,0.4737,0.4735,0.4762,0.4751,0.4751,0.4751,0.4751,0,0.4173,0.4202,0.4249,0.4272,0.4308,0.4342,0.4377,0.4405,0.4444,0.4476,0.4504,0.4535,0.4582,0.4621,0.4651,0.4698,0.471,0.4729,0.4737,0.4727,0.4725,0.4745,0.4744,0.4752,0.4752,0.4752,0.4752,0,0.4171,0.4203,0.4246,0.4296,0.431,0.4333,0.4379,0.4405,0.4434,0.4475,0.4487,0.4535,0.4582,0.4623,0.4686,0.4706,0.4755,0.4765,0.4739,0.4743,0.4759,0.4758,0.48,0.4809,0.4791,0.4791,0.4791,0,0.4179,0.4202,0.4254,0.4276,0.43,0.4335,0.4361,0.4398,0.4425,0.4478,0.4499,0.4546,0.4587,0.4661,0.4705,0.4754,0.4766,0.4777,0.4773,0.4763,0.4768,0.4766,0.477,0.4777,0.4777,0.4777,0.4777,0,0.4193,0.4208,0.4242,0.4283,0.4313,0.4347,0.4384,0.4401,0.4446,0.4476,0.4521,0.4552,0.4616,0.4665,0.4719,0.4751,0.4773,0.4778,0.4785,0.4775,0.476,0.477,0.474,0.4777,0.4777,0.4777,0.4777,0.4777,0.4197,0.422,0.426,0.4298,0.4329,0.4362,0.4389,0.4422,0.446,0.4511,0.4532,0.458,0.4628,0.4703,0.4735,0.4776,0.478,0.479,0.4793,0.4795,0.4794,0.4752,0.4787,0.4787,0.4787,0.4787,0.4787,0,0.4213,0.424,0.4275,0.4323,0.4355,0.4369,0.4411,0.4438,0.4478,0.4519,0.4557,0.4613,0.4661,0.4709,0.4761,0.4785,0.4797,0.4798,0.4797,0.4805,0.4786,0.4775,0.4788,0.4788,0.4788,0.4788,0.4788,0.4788,0.4224,0.4263,0.4284,0.434,0.4369,0.4413,0.4436,0.4469,0.4502,0.4561,0.46,0.4629,0.4675,0.4731,0.4777,0.4791,0.481,0.4808,0.4824,0.4806,0.4806,0.4805,0.4795,0.4811,0.4811,0.484,0.484,0.484]}]]